Location: �terpigny
(49.8910°N, 2.9249°E)
Time: 09:30:19
(UTC+00:00)

DIWATA 2B (PO-101) - Pass Details

Date: 02 July 2022
Orbit: 583 x 599 km, 98.0° (Epoch: 14 August)

Event Time Altitude Azimuth Distance (km) Brightness Sun altitude
Exits shadow 00:11:29 - 116° (ESE) 2,582 ? -16.9°
Reaches altitude 10° 00:13:31 10° 101° (E) 1,942 ? -16.9°
Maximum altitude 00:16:17 17° 59° (ENE) 1,525 ? -16.9°
Drops below altitude 10° 00:19:04 10° 18° (NNE) 1,952 ? -16.8°
Sets 00:21:50 0° 359° (N) 2,859 ? -16.8°
